Weather in Vina del Mar

Chile     33°01′24″S   71°34′01″W
temp.,
°C
wind,
m/s
gust,
m/s
humid.,
%
clouds,
%
prec.,
mm/h
press.,
hPa
HPBL,
m
1 march, mon
mon100:00+13ene01810 0.0 101128
03:00+12nne01880 0.0 101023
06:00+11nne11900 0.0 101027
09:00+16nne22760 0.0 1011172
12:00+20nw666429 0.0 1011431
15:00+21nnw786140 0.0 1011596
18:00+19nnw447147 0.0 1011388
21:00+14nnw129766 0.0 101229
2 march, tue
tue200:00+13se119742 0.0 101229
03:00+13ese119456 0.0 101125
06:00+13ene1193100 0.0 101128
09:00+17nw128199 0.0 1012148
12:00+20nw556996 0.0 1013526
15:00+21nw656294 0.0 1012526
18:00+20nw556855 0.0 1013438
21:00+15nw119474 0.0 101429
3 march, wed
wed300:00+14sse119331 0.0 101523
03:00+13ese119123 0.0 101423
06:00+13wnw01915 0.0 101324
09:00+17ne11787 0.0 1015129
12:00+21wnw436158 0.0 1015409
15:00+22wnw546129 0.0 1015455
18:00+20wnw43683 0.0 1014387
21:00+16wsw22912 0.0 101542
4 march, thu
thu400:00+15sse01920 0.0 101523
03:00+15sse11900 0.0 101425
06:00+14nne01890 0.0 101324
09:00+17nw11780 0.0 1014132
12:00+23wnw32570 0.0 1013426
15:00+23wnw54510 0.0 1012428
18:00+20wnw44684 0.0 1011330
21:00+16n12959 0.0 101275
5 march, fri
fri500:00+16n119380 0.0 1013122
03:00+16nnw119187 0.0 1012170
06:00+16n2287100 0.0 1012263
09:00+17nnw3384100 0.1 1014357
12:00+20nnw446491 0.0 1013618
15:00+21nw656052 0.0 1014569
18:00+19nw446710 0.0 1013530
21:00+15w22878 0.0 101435